Regional Weather Roundup
Issued by NWS Jackson, KY

Home | Current Version | Previous Version | Text Only | Print | Product List | Glossary On
Versions: 1 2 3 4 5 6 7 8 9 10 11 12 13 14 15 16 17 18 19 20 21 22 23 24 25 26 27
000
ASUS43 KJKL 262110
RWRJKL

EAST KENTUCKY HOURLY WEATHER ROUNDUP
NATIONAL WEATHER SERVICE JACKSON KY
400 PM EST SUN FEB 26 2017

NOTE: "FAIR" INDICATES FEW OR NO CLOUDS BELOW 12,000 FEET WITH
NO SIGNIFICANT WEATHER AND/OR OBSTRUCTIONS TO VISIBILITY.

* THESE REPORTS ARE NOT UNDER NWS QUALITY CONTROL AND MAY NOT
  REPORT WEATHER SUCH AS PRECIPITATION AND FOG.

KYZ079-080-083-085-087-088-110-112-115-119-120-262200
...EASTERN KENTUCKY...

CITY           SKY/WX    TMP DP  RH WIND       PRES   REMARKS
JACKSON        SUNNY     48  16  27 VRB3      30.18S
LONDON         SUNNY     48  12  23 SW6       30.19S
SOMERSET*      SUNNY     48  14  25 SE3       30.20F
MONTICELLO*    SUNNY     52  16  24 W10       30.19F
WILLIAMSBURG*  CLEAR     50  16  25 SE6       30.18F
MIDDLESBORO*   SUNNY     50  17  27 SW6       30.20F
HARLAN APT*    CLEAR     48  16  27 S5        30.18S
PIKE CO APT*     N/A     46  15  28 S5        30.18S
BIG SANDY APT* CLEAR     47  13  25 S5        30.19S
MOREHEAD APT*  CLEAR     46  14  27 SW8       30.19S
ASHLAND*       SUNNY     39  19  45 SW5       30.17S
$$

KYZ035-036-041-042-044-050-067-078-099-262200
...CENTRAL KENTUCKY...

CITY           SKY/WX    TMP DP  RH WIND       PRES   REMARKS
FLEMING/MASON* SUNNY     46  18  33 SW7       30.18S
DANVILLE*      SUNNY     46  18  31 S9        30.19S
LEXINGTON      SUNNY     49  12  22 SW10G17   30.17F
FRANKFORT      SUNNY     50  14  23 S10       30.15F
LOUISVILLE     MOSUNNY   51   9  18 SW7       30.15F
LEBANON*         N/A     48  14  25 S12       30.17F
GLASGOW*       SUNNY     52  17  25 S7        30.16F
BOWLING GREEN  SUNNY     53  15  22 S10       30.16F
$$

KYZ091>093-OHZ055-061-077-WVZ005-015-034-035-042-262200
...SOUTHERN OHIO/WEST VIRGINIA...

CITY           SKY/WX    TMP DP  RH WIND       PRES   REMARKS
COVINGTON      MOSUNNY   46  14  27 SW12      30.14S
COLUMBUS       MOSUNNY   44  18  35 SW13      30.14F
DAYTON         PTSUNNY   42  15  33 SW18      30.12F
WILMINGTON     SUNNY     43  18  36 SW15      30.13F
HUNTINGTON     SUNNY     47  14  26 VRB6      30.18S
CHARLESTON     MOSUNNY   46  10  23 VRB3      30.18S
PINEVILLE*     SUNNY     47   3  16 MISG      30.22R
BECKLEY        SUNNY     41   9  26 SW8       30.14S
BLUEFIELD      SUNNY     40  10  29 W10       30.15R WCI  33
LOGAN CO APT*    N/A     45  12  26 CALM      30.17R
$$

VAZ002-007-008-TNZ017-027-036-066-071-262200
...SOUTHWEST VIRGINIA/EAST TENNESSEE...

CITY           SKY/WX    TMP DP  RH WIND       PRES   REMARKS
WISE*          SUNNY     45  10  24 NW3       30.16S
JONESVILLE*      N/A     48  16  27 S6        30.21S
ABINGDON*      SUNNY     46  15  28 W5        30.18R
BRISTOL        MOSUNNY   48  17  29 VRB5      30.19F
MORRISTOWN*    CLEAR     48  16  27 CALM      30.18F
SEVIERVILLE*   CLEAR     50  16  25 VRB5      30.18F
KNOXVILLE      MOSUNNY   51   9  18 CALM      30.19S
LAFOLLETTE*    CLEAR     50  16  25 VRB5      30.22S
OAK RIDGE      SUNNY     52  11  19 CALM      30.21F
CROSSVILLE     SUNNY     49  15  25 SE8       30.16F
NASHVILLE      PTSUNNY   54  15  21 S7        30.15F
$$

...KEY TO REMARKS...
VSB - VISIBILITY IN MILES
WCI - WIND CHILL INDEX
HX  - HEAT INDEX

$$




USA.gov is the U.S. government's official web portal to all federal, state and local government web resources and services.